Simultaneous Nadir Overpasses (SNOs) Predictions

Prediction of SNOs between GOES-14 and NOAA-20 Satellite Orbit:

Table of predicted SNOs for the next 14.0 days since TLE Epoch: 2/1/2025
Index Date Time (GOES-14) GOES-14 Lat,Lon NOAA-20 Lat,Lon Distance(km) Time Diff (sec)
1 02/02/2025 08:50:23 0.37,-107.93 1.14,-111.23 376.55 80
2 02/03/2025 08:29:00 0.36,-107.92 0.06,-106.71 138.29 80
3 02/04/2025 20:53:35 -0.38,-107.87 -1.28,-112.01 471.42 80
4 02/05/2025 20:32:09 -0.38,-107.85 -0.32,-107.47 43.34 80
5 02/08/2025 08:37:53 0.40,-107.85 0.45,-108.21 40.89 80
6 02/09/2025 08:16:28 0.39,-107.83 -0.52,-103.67 473.88 80
7 02/10/2025 20:41:03 -0.41,-107.78 -0.68,-108.97 135.87 80
8 02/11/2025 20:19:39 -0.40,-107.76 0.36,-104.44 379.07 80
9 02/13/2025 08:44:06 0.42,-107.78 0.85,-109.70 219.09 80
10 02/14/2025 08:22:41 0.41,-107.77 -0.19,-105.18 296.14 80
